Regional Weather Roundup
Issued by NWS Charleston, SC

Current Version | Previous Version | Graphics & Text | Print | Product List | Glossary On
Versions: 1 2 3 4 5 6 7 8 9 10 11 12 13 14 15 16 17 18 19 20 21 22 23 24 25 26 27 28 29 30 31 32 33 34 35 36 37 38 39 40 41 42 43 44 45 46 47 48 49 50
000 ASUS42 KCHS 281012 RWRCHS REGIONAL WEATHER ROUNDUP NATIONAL WEATHER SERVICE CHARLESTON SC 600 AM EDT TUE MAR 28 2017 NOTE: "FAIR" INDICATES FEW OR NO CLOUDS BELOW 12,000 FEET WITH NO SIGNIFICANT WEATHER AND/OR OBSTRUCTIONS TO VISIBILITY. NOT ALL STATIONS ARE QUALITY CONTROLLED. USE DATA WITH CAUTION... ESPECIALLY DEWPOINT OBSERVATIONS. SCZ027-030-031-034>040-042>050-281100- ...SOUTHEAST SOUTH CAROLINA... CITY SKY/WX TMP DP RH WIND PRES REMARKS N CHARLESTON CLOUDY 63 59 87 S8 29.99F WATERFRONT PRK N/A 65 62 90 VRB2 29.99F JOHNS ISLAND PTSUNNY 66 61 82 S8 30.00F PINOPOLIS N/A 64 61 88 VRB3 29.90S MONCKS CORNER PTSUNNY 61 57 88 S5 29.99S SUMMERVILLE FAIR 61 59 94 S5 30.00S BEAUFORT MCAS PTCLDY 66 63 90 S5 29.99F BEAUFORT ARPT PTSUNNY 64 61 88 SW5 30.00S HILTON HEAD IS NOT AVBL WALTERBORO MOSUNNY 61 59 94 SW5 30.00S ALLENDALE CLOUDY 64 59 82 VRB3 29.98R ...SOUTHERN MIDLANDS AND PEE DEE... CITY SKY/WX TMP DP RH WIND PRES REMARKS GEORGETOWN FAIR 61 59 94 SW6 30.00F KINGSTREE FAIR 61 57 88 CALM 29.98S ORANGEBURG CLOUDY 63 59 87 S9 29.98R BARNWELL FAIR 66 59 77 S6 29.98R AIKEN FAIR 63 55 77 SW6 30.00R MANNING FAIR 63 59 88 S5 29.98S COLUMBIA CLOUDY 65 56 72 S3 29.95R SUMTER CLOUDY 64 58 79 SW10 29.94S FLORENCE PTCLDY 61 59 93 S7 29.97S MYRTLE BEACH PTCLDY 64 61 88 SW6 30.00S N MYRTLE BEACH CLEAR 64 61 90 SW8 29.98S $$ GAZ063-065-086>088-099>101-113>116-118-119-134>141-150-281100- ...SOUTHEAST GEORGIA... CITY SKY/WX TMP DP RH WIND PRES REMARKS SAVANNAH ARPT PTCLDY 65 59 81 SW8 30.01S HUNTER AAF CLEAR 65 64 94 SW3 29.99R FORT STEWART PTCLDY 64 58 82 CALM 29.99S STATESBORO MOCLDY 65 60 85 SW6 30.00R SYLVANIA MOSUNNY N/A N/A N/A CALM 30.00S CLAXTON FAIR N/A N/A N/A S3 30.00S ...CSRA...CENTRAL AND FAR SOUTHEAST GEORGIA... CITY SKY/WX TMP DP RH WIND PRES REMARKS THOMSON CLOUDY 62 59 91 W6 30.01R AUGUSTA-BUSH CLOUDY 68 57 68 S7 29.95F AUGUSTA-DANIEL CLOUDY 67 55 65 SW5 29.97S SWAINSBORO FAIR 63 57 82 S5 29.99S VIDALIA CLEAR 63 59 88 SW3 30.01R EASTMAN FAIR 60 60 100 CALM 30.02R HAZLEHURST FAIR 63 61 92 S5 30.00R ALMA PTCLDY 61 58 90 S3 30.01S WAYCROSS CLEAR 63 62 94 SW3 30.02S JESUP PTSUNNY 63 57 82 SW3 30.02S BAXLEY FAIR 61 61 100 S3 30.01S BRUNSWICK CLOUDY 68 63 83 S7 30.03R SAINT SIMONS PTCLDY 66 61 84 SW5 30.02F $$ SCZ027-028-034-036>038-045-046-048>050-GAZ119-141-281100- ...LAKE AND SUPPLEMENTAL COASTAL OBSERVATIONS... STATION/POSITION TIME TEMP WIND PRES WAVE SWELL AIR SEA DIR/SP/G HT/PER HT/PER/DIR (UTC) (F) (DEG/KT/KT) (MB) (FT/S) (FT/S/D) WINYAH BAY 0845 64 260/ 5 1016.0 LAKE MURRAY 0920 64 240/ 4/ 5 1013.9S ACE BASIN NERRS 0845 65 CALM 1016.0 FORT PULASKI 0948 66 64 220/ 4/ 5 1016.2F SAPELO ISLAND 0900 67 210/ 5 1016.0 $$ ANZ835-935-AMZ111-154-330-350-352-354-370-450-454-472-281100- ...C-MAN AND BUOY OBSERVATIONS... STATION/POSITION TIME TEMP WIND PRES WAVE SWELL AIR SEA DIR/SP/G HT/PER HT/PER/DIR (UTC) (F) (DEG/KT/KT) (MB) (FT/S) (FT/S/D) BUOY 41004 0850 72 70 200/ 14/ 16 1015.2 5/10 5/140/10 BUOY 41008 0850 64 63 230/ 6/ 6 1016.4 4/10 3/ 90/10 FOLLY BEACH CMAN 0900 65 210/ 5/ 7 1016.6R CAPERS NEARSHORE 0908 64 240/ 6/ 8 1016.0R FRIPP NEARSHORE 0908 64 62 220/ 6/ 8 1015.8R STATION/POSITION TIME TEMP WIND PRES WAVE SWELL AIR SEA DIR/SP/G HT/PER HT/PER/DIR (UTC) (F) (DEG/KT/KT) (MB) (FT/S) (FT/S/D) 5E ST. MARYS GA 0930 65 N/A 3/10 2/110/11 FRYING PAN BUOY 0950 72 75 220/ 17/ 21 1015.5R 6/10 5/150/10 BUOY 41025 0950 71 73 230/ 17/ 21 1015.3R 5/ 8 3/140/ 8 CAPE LOOKOUT NC 0900 67 220/ 6/ 8 1015.1S BUOY 41002 0950 67 72 340/ 2/ 4 1017.1R 6/10 5/ 80/10 BUOY 41010 NOT AVBL ST AUGUSTINE FL 1000 63 69 250/ 4/ 5 1017.7R $$

USA.gov is the U.S. government's official web portal to all federal, state and local government web resources and services.